Regional Weather Roundup
Issued by NWS

Home | Current Version | Previous Version | Graphics & Text | Print | Product List | Glossary On
Versions: 1 2 3 4 5 6 7 8 9 10 11 12 13 14 15 16 17 18 19 20 21 22 23 24 25 26 27 28 29 30 31 32 33 34 35 36 37 38 39 40 41 42 43 44 45 46 47 48 49 50
000
ASUS44 KMEG 270910
RWRTN
TENNESSEE HOURLY STATE WEATHER ROUNDUP
NATIONAL WEATHER SERVICE MEMPHIS TN
400 AM CDT SUN MAY 27 2018

TNZ002-004-019-021-049-052-054-088>092-271000-
WEST TENNESSEE

CITY           SKY/WX    TMP DP  RH WIND       PRES   REMARKS
MEMPHIS INTL   FAIR      70  69  97 VRB5      29.87R
NWS MEMPHIS      N/A     69 N/A N/A MISG        N/A
JACKSON        FAIR      71  71 100 CALM      29.89R
DYERSBURG      FAIR      71  70  96 CALM      29.89R
SOMERVILLE     CLEAR     70  70 100 CALM      29.87R
COVINGTON      PTCLDY    72  70  94 CALM      29.87S
UNION CITY     CLOUDY    72  70  94 CALM      29.87R
BOLIVAR        CLEAR     70  68  94 CALM      29.88R
PARIS          CLOUDY    68  68 100 CALM      29.90R
HUNTINGDON     CLOUDY    70  70 100 CALM      29.89R
LEXINGTON      CLEAR     68  68 100 CALM      29.89R
SELMER         CLEAR     68  68 100 CALM      29.88S
SAVANNAH       CLEAR     68  68 100 CALM      29.88R
$$

TNZ008-025-027-028-033-062-065-066-271000-
NORTH MIDDLE TENNESSEE

CITY           SKY/WX    TMP DP  RH WIND       PRES   REMARKS
NASHVILLE      FAIR      70  67  90 SE3       29.91R
DICKSON        SUNNY     68  68 100 E6        29.90S FOG
PORTLAND       CLEAR     68  68 100 CALM      29.91R
CLARKSVILLE    FOG       68  66  93 CALM      29.90R VSB 1/2
SMYRNA         FAIR      66  66 100 CALM      29.92R
MURFREESBORO   PTSUNNY   68  66  94 CALM      29.90R
COOKEVILLE     FOG       64  64 100 CALM      29.93R VSB 3/4
LIVINGSTON     PTSUNNY   68  66  94 SW3       29.94R
CROSSVILLE     MOCLDY    67  65  93 CALM      29.98S
ROCKWOOD       CLOUDY    68  66  94 SW3       29.98R
$$

TNZ061-075-076-078-094-096-097-271000-
SOUTH MIDDLE TENNESSEE

CITY           SKY/WX    TMP DP  RH WIND       PRES   REMARKS
LEWISBURG      SUNNY     64  64 100 CALM      29.91R
TULLAHOMA      MOCLDY    68  66  94 CALM      29.93R
WINCHESTER     CLOUDY    70  68  94 SE5       29.93S
MCMINNVILLE    FOG       66  66 100 CALM      29.93S VSB 1/4
COLUMBIA       CLEAR     68  68 100 CALM      29.89R
SHELBYVILLE    CLEAR     66  66 100 E5        29.91S
$$

TNZ017-018-042-046-047-271000-
NORTHEAST TENNESSEE

CITY           SKY/WX    TMP DP  RH WIND       PRES   REMARKS
TRI CITIES     FOG       68  68 100 CALM      29.99R VSB 1/4
ELIZABETHTON     N/A     68  66  94 CALM      29.99S
GREENEVILLE    CLOUDY    68  66  94 CALM      29.99S
$$

TNZ012-013-036-069-073-074-271000-
CENTRAL EAST TENNESSEE

CITY           SKY/WX    TMP DP  RH WIND       PRES   REMARKS
KNOXVILLE      LGT RAIN  68  68 100 SW6       29.96R FOG
OAK RIDGE      LGT RAIN  69  69 100 CALM      29.97S
DOWNTOWN KNOXV   N/A     68  68 100 CALM      29.97R
GATLINBURG     CLOUDY    68  66  94 CALM      29.97R
MORRISTOWN     MOCLDY    66  66 100 CALM      29.97S
JACKSBORO      CLOUDY    68  66  94 CALM      30.00R
$$

TNZ083-085-099-271000-
SOUTHEAST TENNESSEE

CITY           SKY/WX    TMP DP  RH WIND       PRES   REMARKS
CHATTANOOGA    FAIR      70  68  93 E3        29.94S
DAYTON         PTSUNNY   70  70 100 CALM      29.94S
$$

SKY/WX REPORTED AS FAIR MEANS FEW OR NO CLOUDS BELOW
12 THOUSAND FEET.





USA.gov is the U.S. government's official web portal to all federal, state and local government web resources and services.